Flag for France Weather past 2 weeks in Lille, France

Now
59 °F

Clear.


Feels Like: 59 °F
Forecast: 57 / 65 °F
Wind: No wind

Location: Lille Airport

Current Time: Jul 7, 2015 at 7:00:59 AM

Latest Report: Jul 7, 2015 at 6:00 AM


Visibility: 10 mi

Pressure: 29.89 "Hg

Humidity: 82%

Dew point: 54 °F

Location of LilleLocation

Historic Weather in Lille — Graph

°F

Lille temperature yesterday

Maximum temperature yesterday: 79 °F (at 5:30 PM)
Minimum temperature yesterday: 54 °F (at 5:30 AM)
Average temperature yesterday: 67 °F

Past Weeks' High & Low Weather Summary

 TemperatureHumidityPressure
High95 °F (Jul 1, 3:30 PM)100% (Jun 24, 5:30 AM)30.27 "Hg (Jun 24, 5:30 AM)
Low46 °F (Jun 24, 5:30 AM)25% (Jul 1, 6:00 PM)29.74 "Hg (Jun 22, 5:30 PM)
Average68 °F64%30.08 "Hg
* Reported Jun 22 6:00 AM — Jul 7 6:00 AM, Lille, Weather by CustomWeather, © 2015

Note: Actual official high and low records may vary slightly from our data, if they occured in-between our weather recording intervals... More about our weather records

Advertising

Lille weather history for previous 24 hours

 ConditionsComfort  
Time TempWeatherWind HumidityBarometerVisibility
6:00 AM
Tue, Jul 7
59 °FClear.No wind82%29.89 "Hg10 mi
5:30 AM59 °FClear.2 mph82%29.89 "Hg10 mi
5:00 AM61 °FClear.2 mph83%29.92 "Hg10 mi
4:30 AM61 °FClear.No wind83%29.92 "Hg10 mi
4:00 AM61 °FClear.No wind83%29.92 "Hg10 mi
3:30 AM61 °FClear.No wind83%29.95 "Hg10 mi
3:00 AM61 °FClear.No wind88%29.95 "Hg10 mi
2:30 AM63 °FClear.No wind83%29.95 "Hg10 mi
2:00 AM63 °FClear.No wind83%29.98 "Hg10 mi
1:30 AM64 °FClear.2 mph78%29.98 "Hg10 mi
1:00 AM64 °FPassing clouds.5 mph78%29.98 "HgN/A
12:30 AM68 °FClear.3 mph64%30.01 "Hg10 mi
12:00 AM68 °FClear.2 mph60%30.01 "Hg10 mi
11:30 PM
Mon, Jul 6
70 °FClear.7 mph53%30.01 "Hg10 mi
11:00 PM72 °FSunny.6 mph53%30.01 "Hg10 mi
10:30 PM72 °FClear.6 mph53%30.01 "HgN/A
10:00 PM73 °FSunny.5 mph47%30.01 "Hg10 mi
9:30 PM73 °FSunny.5 mph50%30.01 "Hg10 mi
9:00 PM77 °FSunny.5 mph44%30.01 "Hg10 mi
8:30 PM79 °FSunny.3 mph37%30.04 "Hg10 mi
8:00 PM79 °FPassing clouds.6 mph37%30.04 "HgN/A
7:30 PM79 °FPassing clouds.3 mph34%30.04 "HgN/A
7:00 PM79 °FSunny.3 mph37%30.07 "Hg10 mi
6:30 PM79 °FPassing clouds.6 mph34%30.07 "HgN/A
6:00 PM79 °FSunny.7 mph34%30.07 "Hg10 mi
5:30 PM79 °FPassing clouds.7 mph37%30.09 "HgN/A
5:00 PM77 °FPassing clouds.7 mph39%30.09 "HgN/A
4:30 PM77 °FPassing clouds.9 mph39%30.12 "HgN/A
4:00 PM77 °FPassing clouds.9 mph36%30.12 "HgN/A
3:30 PM75 °FPassing clouds.7 mph41%30.12 "HgN/A
3:00 PM75 °FPassing clouds.8 mph41%30.12 "HgN/A
2:30 PM73 °FPassing clouds.9 mph44%30.12 "HgN/A
2:00 PM75 °FPassing clouds.10 mph44%30.15 "HgN/A
1:30 PM72 °FPartly sunny.12 mph47%30.15 "HgN/A
1:00 PM72 °FPartly sunny.8 mph47%30.15 "HgN/A
12:30 PM72 °FPartly sunny.10 mph47%30.15 "HgN/A
12:00 PM72 °FScattered clouds.10 mph44%30.18 "HgN/A
11:30 AM70 °FPassing clouds.8 mph50%30.18 "HgN/A
11:00 AM68 °FPassing clouds.7 mph49%30.18 "HgN/A
10:30 AM66 °FPassing clouds.8 mph60%30.18 "HgN/A
10:00 AM66 °FPassing clouds.6 mph64%30.18 "HgN/A
9:30 AM64 °FPassing clouds.9 mph73%30.18 "HgN/A
9:00 AM61 °FPartly sunny.9 mph83%30.18 "HgN/A
8:30 AM61 °FSunny.6 mph83%30.18 "Hg10 mi
8:00 AM59 °FSunny.2 mph88%30.18 "Hg10 mi
7:30 AM57 °FSunny.3 mph88%30.18 "Hg10 mi
7:00 AM57 °FSunny.3 mph88%30.18 "Hg10 mi
Weather by CustomWeather, © 2015

See weather overviewHow to use our weather pages